Location: Bouillancy
(49.1149°N, 2.9308°E)
Time: 08:37:39
(UTC+00:00)

Cosmos 2263 Rocket - Pass Details

Date: 30 September 2020
Orbit: 822 x 850 km, 71.0° (Epoch: 29 October)

Event Time Altitude Azimuth Distance (km) Brightness Sun altitude
Rises 17:54:49 0° 248° (WSW) 3,359 6.8 -5.2°
Reaches altitude 10° 17:57:39 10° 261° (W) 2,434 6.3 -5.6°
Maximum altitude 18:02:14 25° 316° (NW) 1,610 4.3 -6.4°
Drops below altitude 10° 18:06:52 10° 12° (NNE) 2,459 4.5 -7.1°
Sets 18:09:46 0° 25° (NNE) 3,401 5.1 -7.6°
